Location: Augustenthal
(51.7167°N, 10.2833°E)
Time: 20:59:51
(UTC+00:00)

Cosmos 2227 Rocket - Pass Details

Date: 18 May 2021
Orbit: 840 x 844 km, 71.0° (Epoch: 23 June)

Event Time Altitude Azimuth Distance (km) Brightness Sun altitude
Rises 22:55:13 0° 330° (NNW) 3,407 6.5 -18.4°
Reaches altitude 10° 22:57:45 10° 336° (NNW) 2,469 5.7 -18.4°
Maximum altitude 23:03:17 52° 52° (NE) 1,038 2.8 -18.5°
Enters shadow 23:07:44 16° 126° (SE) 2,082 3.9 -18.5°
